Location: Chippewa Lake
(41.0698°N, 81.9010°W)
Time: 22:01:48
(UTC+00:00)

Cosmos 1500 Rocket - Pass Details

Date: 09 May 2021
Orbit: 602 x 632 km, 82.5° (Epoch: 16 June)

Event Time Altitude Azimuth Distance (km) Brightness Sun altitude
Rises 00:54:43 0° 0° (N) 2,906 7.4 -4.6°
Reaches altitude 10° 00:57:06 10° 9° (N) 1,990 6.4 -5.0°
Maximum altitude 01:01:12 37° 77° (ENE) 964 4.2 -5.7°
Drops below altitude 10° 01:05:13 10° 145° (SE) 1,959 5.6 -6.4°
Enters shadow 01:06:32 - 151° (SSE) 2,457 6.1 -6.6°
